When you browse on this site, cookies collect data to enhance your experience and personalize the content and advertising you see.
Visit our Privacy Policy to learn more. By continuing to use the site, you agree to this use of cookies and data.
  • în România
  • Lista ţărilor
  • Pe 7 zile
  • Temperatura apei
  • Meteo pe hartă
  • Widget-uri
  • user-avatar
    Intrare

    Meteo pe oră la Potenza

    Astăzi, 31 Mai, Duminică

    Timp Temperatura Precipitaţii Vânt Presiune Umiditate
    00:00 +7°C° 0 mm 1 m/s 682 mmHg 91%
    01:00 +7°C° 0 mm 1 m/s 682 mmHg 91%
    02:00 +7°C° 0 mm 1 m/s 682 mmHg 92%
    03:00 +7°C° 0 mm 1 m/s 681 mmHg 92%
    04:00 +7°C° 0 mm 1 m/s 681 mmHg 93%
    05:00 +8°C° 0 mm 1 m/s 682 mmHg 90%
    06:00 +10°C° 0 mm 1 m/s 682 mmHg 86%
    07:00 +10°C° 0 mm 2 m/s 682 mmHg 83%
    08:00 +12°C° 0 mm 2 m/s 683 mmHg 79%
    09:00 +13°C° 0 mm 2 m/s 684 mmHg 74%
    10:00 +14°C° 0 mm 2 m/s 684 mmHg 69%
    11:00 +15°C° 0.5 mm 2 m/s 684 mmHg 68%
    12:00 +16°C° 0.5 mm 2 m/s 684 mmHg 67%
    13:00 +16°C° 0.5 mm 2 m/s 684 mmHg 65%
    14:00 +16°C° 1.2 mm 2 m/s 684 mmHg 68%
    15:00 +16°C° 1.2 mm 2 m/s 684 mmHg 70%
    16:00 +15°C° 1.2 mm 2 m/s 683 mmHg 73%
    17:00 +14°C° 1 mm 1 m/s 683 mmHg 77%
    18:00 +13°C° 1 mm 1 m/s 683 mmHg 82%
    19:00 +12°C° 1 mm 1 m/s 683 mmHg 86%
    20:00 +11°C° 0.3 mm 1 m/s 683 mmHg 87%
    21:00 +10°C° 0.3 mm 1 m/s 683 mmHg 87%
    22:00 +10°C° 0.3 mm 1 m/s 683 mmHg 88%
    23:00 +10°C° 0.1 mm 1 m/s 683 mmHg 87%

    Mâine, 1 Iunie, Luni

    Timp Temperatura Precipitaţii Vânt Presiune Umiditate
    00:00 +10°C° 0.1 mm 1 m/s 683 mmHg 85%
    01:00 +10°C° 0.1 mm 1 m/s 682 mmHg 84%
    02:00 +9°C° 0 mm 1 m/s 682 mmHg 84%
    03:00 +9°C° 0 mm 1 m/s 682 mmHg 84%
    04:00 +8°C° 0 mm 1 m/s 682 mmHg 84%
    05:00 +10°C° 0 mm 1 m/s 682 mmHg 80%
    06:00 +10°C° 0 mm 2 m/s 683 mmHg 75%
    07:00 +12°C° 0 mm 2 m/s 683 mmHg 70%
    08:00 +12°C° 0 mm 3 m/s 684 mmHg 66%
    09:00 +13°C° 0 mm 4 m/s 684 mmHg 62%
    10:00 +15°C° 0 mm 4 m/s 684 mmHg 58%
    11:00 +15°C° 0.2 mm 5 m/s 684 mmHg 61%
    12:00 +14°C° 0.2 mm 5 m/s 684 mmHg 65%
    13:00 +14°C° 0.2 mm 5 m/s 684 mmHg 68%
    14:00 +14°C° 0.4 mm 5 m/s 684 mmHg 69%
    15:00 +14°C° 0.4 mm 5 m/s 684 mmHg 69%
    16:00 +15°C° 0.4 mm 5 m/s 684 mmHg 70%
    17:00 +13°C° 0.1 mm 4 m/s 683 mmHg 74%
    18:00 +12°C° 0.1 mm 3 m/s 683 mmHg 78%
    19:00 +12°C° 0.1 mm 2 m/s 683 mmHg 81%
    20:00 +10°C° 0 mm 2 m/s 683 mmHg 84%
    21:00 +9°C° 0 mm 2 m/s 683 mmHg 87%
    22:00 +8°C° 0 mm 2 m/s 683 mmHg 90%
    23:00 +8°C° 0 mm 2 m/s 682 mmHg 90%

    Poimâine, 2 Iunie, Marţi

    Timp Temperatura Precipitaţii Vânt Presiune Umiditate
    00:00 +7°C° 0 mm 2 m/s 682 mmHg 90%
    01:00 +7°C° 0 mm 2 m/s 682 mmHg 91%
    02:00 +7°C° 0 mm 2 m/s 682 mmHg 90%
    03:00 +7°C° 0 mm 2 m/s 682 mmHg 89%
    04:00 +7°C° 0 mm 2 m/s 682 mmHg 88%
    05:00 +9°C° 0 mm 2 m/s 682 mmHg 84%
    06:00 +10°C° 0 mm 2 m/s 683 mmHg 80%
    07:00 +13°C° 0 mm 2 m/s 683 mmHg 76%
    08:00 +13°C° 0 mm 3 m/s 683 mmHg 71%
    09:00 +16°C° 0 mm 3 m/s 684 mmHg 65%
    10:00 +17°C° 0 mm 4 m/s 684 mmHg 60%
    11:00 +18°C° 0 mm 4 m/s 684 mmHg 58%
    12:00 +17°C° 0 mm 5 m/s 684 mmHg 55%
    13:00 +19°C° 0 mm 5 m/s 684 mmHg 53%
    14:00 +19°C° 0 mm 5 m/s 684 mmHg 53%
    15:00 +19°C° 0 mm 5 m/s 684 mmHg 54%
    16:00 +17°C° 0 mm 5 m/s 683 mmHg 54%
    17:00 +17°C° 0 mm 4 m/s 683 mmHg 60%
    18:00 +15°C° 0 mm 2 m/s 682 mmHg 66%
    19:00 +13°C° 0 mm 1 m/s 682 mmHg 73%
    20:00 +13°C° 0 mm 1 m/s 682 mmHg 75%
    21:00 +12°C° 0 mm 1 m/s 681 mmHg 77%
    22:00 +11°C° 0 mm 1 m/s 681 mmHg 79%
    23:00 +11°C° 0 mm 1 m/s 681 mmHg 81%

    3 Iunie, Miercuri

    Timp Temperatura Precipitaţii Vânt Presiune Umiditate
    00:00 +11°C° 0 mm 1 m/s 681 mmHg 82%
    01:00 +10°C° 0 mm 1 m/s 680 mmHg 83%
    02:00 +10°C° 0 mm 1 m/s 680 mmHg 83%
    03:00 +10°C° 0 mm 1 m/s 680 mmHg 82%
    04:00 +10°C° 0 mm 1 m/s 680 mmHg 81%
    05:00 +11°C° 0 mm 1 m/s 680 mmHg 79%
    06:00 +12°C° 0 mm 1 m/s 680 mmHg 77%
    07:00 +14°C° 0 mm 1 m/s 681 mmHg 75%
    08:00 +15°C° 0 mm 1 m/s 681 mmHg 71%
    09:00 +15°C° 0 mm 2 m/s 682 mmHg 67%
    10:00 +16°C° 0 mm 2 m/s 682 mmHg 63%
    11:00 +17°C° 0.2 mm 2 m/s 682 mmHg 61%
    12:00 +18°C° 0.2 mm 2 m/s 682 mmHg 58%
    13:00 +19°C° 0.2 mm 2 m/s 682 mmHg 56%
    14:00 +19°C° 0.1 mm 2 m/s 682 mmHg 55%
    15:00 +19°C° 0.1 mm 2 m/s 682 mmHg 54%
    16:00 +19°C° 0.1 mm 2 m/s 682 mmHg 54%
    17:00 +17°C° 0 mm 2 m/s 682 mmHg 60%
    18:00 +16°C° 0 mm 1 m/s 682 mmHg 67%
    19:00 +14°C° 0 mm 1 m/s 681 mmHg 74%
    20:00 +13°C° 0 mm 1 m/s 681 mmHg 76%
    21:00 +12°C° 0 mm 1 m/s 681 mmHg 79%
    22:00 +11°C° 0 mm 1 m/s 681 mmHg 82%
    23:00 +11°C° 0 mm 1 m/s 681 mmHg 82%

    4 Iunie, Joi

    Timp Temperatura Precipitaţii Vânt Presiune Umiditate
    00:00 +11°C° 0 mm 1 m/s 681 mmHg 82%
    01:00 +10°C° 0 mm 1 m/s 681 mmHg 82%
    02:00 +10°C° 0 mm 1 m/s 681 mmHg 82%
    03:00 +10°C° 0 mm 1 m/s 681 mmHg 82%
    04:00 +10°C° 0 mm 1 m/s 681 mmHg 81%
    05:00 +12°C° 0 mm 1 m/s 682 mmHg 77%
    06:00 +14°C° 0 mm 1 m/s 682 mmHg 72%
    07:00 +16°C° 0 mm 1 m/s 683 mmHg 67%
    08:00 +18°C° 0 mm 1 m/s 684 mmHg 61%
    09:00 +20°C° 0 mm 1 m/s 684 mmHg 55%
    10:00 +22°C° 0 mm 1 m/s 685 mmHg 49%
    11:00 +22°C° 0 mm 1 m/s 685 mmHg 47%
    12:00 +23°C° 0 mm 1 m/s 685 mmHg 45%
    13:00 +24°C° 0 mm 2 m/s 685 mmHg 44%
    14:00 +23°C° 0 mm 2 m/s 685 mmHg 46%
    15:00 +23°C° 0 mm 2 m/s 685 mmHg 48%
    16:00 +23°C° 0 mm 2 m/s 685 mmHg 50%
    17:00 +20°C° 0 mm 2 m/s 684 mmHg 58%
    18:00 +19°C° 0 mm 1 m/s 684 mmHg 65%
    19:00 +18°C° 0 mm 1 m/s 683 mmHg 72%
    20:00 +16°C° 0 mm 1 m/s 683 mmHg 73%
    21:00 +15°C° 0 mm 1 m/s 683 mmHg 75%
    22:00 +14°C° 0 mm 1 m/s 683 mmHg 77%
    23:00 +14°C° 0 mm 1 m/s 683 mmHg 77%

    5 Iunie, Vineri

    Timp Temperatura Precipitaţii Vânt Presiune Umiditate
    00:00 +13°C° 0 mm 1 m/s 683 mmHg 77%
    01:00 +13°C° 0 mm 1 m/s 682 mmHg 77%
    02:00 +13°C° 0 mm 1 m/s 682 mmHg 76%
    03:00 +13°C° 0 mm 1 m/s 682 mmHg 74%
    04:00 +13°C° 0 mm 1 m/s 682 mmHg 72%
    05:00 +15°C° 0 mm 1 m/s 682 mmHg 69%
    06:00 +16°C° 0 mm 1 m/s 683 mmHg 66%
    07:00 +19°C° 0 mm 1 m/s 683 mmHg 62%
    08:00 +20°C° 0 mm 2 m/s 684 mmHg 57%
    09:00 +23°C° 0 mm 2 m/s 685 mmHg 51%
    10:00 +24°C° 0 mm 2 m/s 685 mmHg 45%
    11:00 +25°C° 0 mm 2 m/s 685 mmHg 44%
    12:00 +26°C° 0 mm 3 m/s 685 mmHg 43%
    13:00 +27°C° 0 mm 3 m/s 685 mmHg 42%
    14:00 +26°C° 0 mm 3 m/s 685 mmHg 44%
    15:00 +26°C° 0 mm 3 m/s 685 mmHg 46%
    16:00 +26°C° 0 mm 3 m/s 685 mmHg 48%
    17:00 +24°C° 0 mm 3 m/s 684 mmHg 54%
    18:00 +21°C° 0 mm 2 m/s 683 mmHg 60%
    19:00 +19°C° 0 mm 2 m/s 683 mmHg 67%
    20:00 +18°C° 0 mm 2 m/s 683 mmHg 66%
    21:00 +18°C° 0 mm 2 m/s 683 mmHg 66%
    22:00 +17°C° 0 mm 2 m/s 683 mmHg 65%
    23:00 +17°C° 0 mm 2 m/s 683 mmHg 64%
    Arată mai mult